Location: City of Moscow
(46.7306°N, 116.9989°W)
Time: 04:48:02
(UTC+00:00)

SMAP - Pass Details

Date: 11 December 2025
Orbit: 681 x 683 km, 98.1° (Epoch: 13 January)

Event Time Altitude Azimuth Distance (km) Brightness Sun altitude
Rises 14:43:00 0° 8° (N) 3,057 6.2 -6.8°
Reaches altitude 10° 14:45:18 10° 4° (N) 2,137 5.4 -6.4°
Maximum altitude 14:49:48 49° 290° (WNW) 879 3.3 -5.7°
Drops below altitude 10° 14:54:16 10° 216° (SW) 2,120 5.5 -5.0°
Sets 14:56:32 0° 211° (SSW) 3,030 6.4 -4.7°
